Flag for Poland Weather past 2 weeks in Legnica, Poland

Now
N/A

Passing clouds.


Feels Like: N/A
Forecast: 32 / 42 °F
Wind: 25 mph from West

Location: Wroclaw Ii

Current Time: Apr 2, 2015 at 2:32:05 AM

Latest Report: Apr 2, 2015 at 1:00 AM


Visibility: 1 mi

Pressure: N/A

Humidity: N/A

Dew point: N/A

Location of LegnicaLocation

Historic Weather in Legnica — Graph

°F

Legnica temperature yesterday

Maximum temperature yesterday: 44 °F (at 2:00 PM)
Minimum temperature yesterday: 35 °F (at 11:00 PM)
Average temperature yesterday: 41 °F

Past Weeks' High & Low Weather Summary

 TemperatureHumidityPressure
High65 °F (Mar 25, 4:00 PM)97% (Mar 29, 12:00 AM)30.49 "Hg (Mar 29, 12:00 AM)
Low26 °F (Mar 23, 2:00 AM)26% (Mar 18, 1:00 PM)29.18 "Hg (Mar 30, 3:00 AM)
Average44 °F66%29.94 "Hg
* Reported Mar 17 10:00 PM — Apr 1 11:00 PM, Legnica, Weather by CustomWeather, © 2015

Note: Actual official high and low records may vary slightly from our data, if they occured in-between our weather recording intervals... More about our weather records

Advertising

Legnica weather history for previous 24 hours

 ConditionsComfort  
Time TempWeatherWind HumidityBarometerVisibility
11:00 PM
Wed, Apr 1
35 °FOvercast.5 mph88%29.83 "Hg31 mi
10:00 PM40 °FOvercast.7 mph65%29.80 "Hg25 mi
9:00 PM39 °FOvercast.9 mph68%29.78 "Hg31 mi
8:00 PM41 °FOvercast.10 mph59%29.77 "Hg31 mi
7:00 PM42 °FPartly sunny.9 mph64%29.76 "Hg31 mi
6:00 PM42 °FPartly sunny.10 mph63%29.74 "Hg31 mi
5:00 PM40 °FPartly sunny.9 mph76%29.72 "Hg12 mi
4:00 PM43 °FPartly sunny.8 mph78%29.70 "Hg19 mi
3:00 PM41 °FLight mixture of precip. Overcast.9 mph77%29.71 "Hg6 mi
2:00 PM44 °FOvercast.10 mph63%29.69 "Hg31 mi
1:00 PM43 °FOvercast.10 mph67%29.69 "Hg31 mi
12:00 PM42 °FOvercast.12 mph71%29.67 "Hg31 mi
11:00 AM41 °FOvercast.12 mph75%29.65 "Hg31 mi
10:00 AMN/APassing clouds.21 mphN/AN/A2 mi
9:00 AM40 °FPassing clouds.26 mph75%29.59 "Hg16 mi
8:00 AM40 °FOvercast.10 mph67%29.56 "Hg31 mi
7:00 AM41 °FOvercast.10 mph65%29.53 "Hg31 mi
6:00 AM41 °FOvercast.10 mph62%29.50 "Hg31 mi
5:00 AM41 °FOvercast.10 mph63%29.47 "Hg31 mi
4:00 AM41 °FPassing clouds.12 mph61%29.47 "Hg31 mi
3:00 AM41 °FOvercast.12 mph64%29.44 "Hg31 mi
2:00 AM42 °FPassing clouds.13 mph67%29.44 "Hg31 mi
Weather by CustomWeather, © 2015

See weather overviewHow to use our weather pages